sat.trackr.live / text

‹ back to catalog

STARLINK-3989

NORAD 52630 · 2022-052AJ

PAYLOAD ACTIVE UNKNOWN

§ Identity

Operator
Country
US
Launch date
2022-05-14
Launch site
AFETR
Launch vehicle
Mass (kg)
RCS (m²)

Purposes: comms

External: N2YO · Heavens-Above · Gunter

§ Orbital elements

Epoch: 2026-09-20T00:01:06.973824Z

Period
94.01 min
Inclination
53.1582°
Eccentricity
0.0001292
Mean motion
15.31698318 rev/d
Perigee alt
469.9 km
Apogee alt
471.6 km
Semi-major
6,848.9 km
B*
2.2695e-5
RAAN
102.1028°
Arg perigee
90.5301°
Mean anomaly
269.5849°
Rev number
24,052

§ Raw data

STARLINK-39891 52630U 22052AJ  26263.00077516  .00000339  00000+0  22695-4 0  99942 52630  53.1582 102.1028 0001292  90.5301 269.5849 15.31698318240529

JSON: /api/v1/satellites/52630 · /tle

For live sub-satellite position, see the globe view (requires WebGL).

§ Visibility from observer

Set your observer location to see the next 7 days of passes ≥ 10°. The values pass through the URL so the page stays shareable.

No JS? Fill the form by hand. The geolocation button needs JavaScript.